Wind_Speed
5 1 10 16 20 21 22 24 25 26 26 25 25 26 26 25 24 24 24 24 23 22 22 22 21 21 20 19 18 18 18 20 22 21 20 19 18 18 17 17 17 16 14 12 12 12 12 11 10 10 9 9 9 8 8 7 7 7 6 6 6 6 6
10 9 4 4 11 17 20 22 23 24 26 26 25 25 25 25 25 26 26 25 23 23 22 22 22 22 20 19 19 19 17 18 20 22 22 21 19 18 18 17 17 17 16 14 13 13 13 13 11 10 10 9 10 10 9 9 8 8 7 6 6 6 7
14 12 10 7 4 6 13 19 22 22 23 24 24 23 23 24 25 26 27 25 23 23 23 23 22 22 21 20 20 19 18 17 18 20 22 22 20 19 18 18 17 17 17 17 16 14 13 13 13 11 10 10 10 11 11 10 9 9 8 7 7 7 7
16 15 13 11 8 5 6 11 17 19 20 22 22 23 24 24 25 25 26 25 23 23 23 24 23 23 22 21 21 20 19 19 18 18 19 21 21 19 19 19 18 18 18 17 17 16 14 14 15 13 11 11 11 11 11 11 10 10 9 8 8 7 8
17 16 15 13 10 6 5 8 13 16 18 19 20 21 23 24 25 25 25 24 23 22 23 23 23 23 23 22 21 21 21 20 18 17 18 19 21 21 20 19 18 18 18 18 18 18 19 18 16 14 13 12 12 12 12 12 11 11 10 10 9 8 8
16 16 16 14 12 11 7 2 7 11 14 15 16 19 19 21 24 23 23 23 21 20 22 23 23 24 25 24 23 22 21 21 20 19 18 18 20 21 21 20 19 18 18 18 18 19 20 20 18 16 14 13 12 12 13 13 12 12 11 11 10 9 9
16 17 17 16 14 14 15 13 7 5 11 11 12 16 17 18 21 21 22 22 19 20 21 21 21 22 23 25 25 24 23 21 21 20 19 18 19 19 20 20 20 19 19 19 19 19 20 20 20 19 17 14 13 13 13 14 14 13 13 12 12 11 10
17 17 17 18 18 17 17 17 14 9 11 10 7 11 15 17 17 18 20 20 19 22 22 19 20 22 22 23 25 25 24 23 21 21 21 20 20 19 19 20 20 20 20 20 20 20 20 21 20 19 18 17 16 16 15 15 14 14 14 14 13 12 11
17 19 19 20 20 21 20 17 15 12 9 9 6 7 11 13 14 16 18 21 22 23 21 20 21 22 22 23 24 25 25 25 23 22 22 22 21 20 19 20 20 21 21 21 21 21 21 22 21 20 20 19 18 19 18 17 16 15 16 16 15 14 13
17 19 22 23 24 24 22 18 15 13 11 9 7 9 9 9 12 16 19 23 24 21 18 18 19 19 20 20 21 22 24 25 25 24 23 23 23 21 20 19 19 20 21 21 21 21 22 22 22 22 22 21 20 21 20 20 19 18 17 18 17 16 15
16 19 22 25 28 28 26 23 19 16 14 11 9 10 11 9 7 12 18 22 23 21 19 18 17 17 18 18 18 19 21 23 24 24 24 24 23 22 21 20 20 20 20 21 21 21 22 23 23 23 23 22 22 22 22 22 21 20 19 19 19 18 16
16 19 22 24 27 30 30 28 25 22 19 15 11 10 11 11 8 3 10 18 21 20 20 21 18 17 18 17 16 17 19 21 22 22 24 24 23 22 22 21 20 20 21 20 21 22 23 23 24 24 24 23 23 23 23 23 23 22 22 20 20 19 18
17 19 21 22 25 28 29 29 27 26 23 20 15 11 9 10 10 6 1 8 16 19 19 18 17 17 17 17 17 17 18 19 20 21 22 23 23 23 22 22 21 21 21 20 20 22 23 24 24 24 24 24 23 24 24 24 24 24 23 23 22 22 21
17 19 20 22 24 26 27 27 26 25 24 22 19 15 10 7 8 8 7 3 4 11 16 15 15 17 18 18 18 18 18 18 18 20 21 22 24 24 23 22 22 22 23 22 22 21 22 23 24 25 25 25 25 25 25 25 25 25 25 25 24 25 24
17 18 20 21 23 24 24 24 24 23 22 21 20 18 15 11 6 6 7 5 2 4 12 16 16 17 18 19 20 20 20 19 19 20 21 22 24 25 25 24 24 24 24 25 25 23 22 23 23 25 26 27 27 27 27 27 27 27 27 27 26 26 26
17 18 19 20 20 21 22 22 22 21 20 19 19 18 17 15 11 7 4 6 7 7 10 15 18 17 16 18 20 20 19 20 21 22 23 23 24 24 24 25 26 26 27 27 27 26 25 24 24 25 26 28 29 29 29 30 30 30 29 29 28 28 27
16 17 18 18 19 19 20 21 20 19 19 18 18 17 16 15 14 12 8 2 6 9 11 14 17 17 14 14 17 18 18 19 21 22 22 24 25 24 24 25 26 27 28 28 28 27 26 26 26 26 26 27 29 31 32 32 33 33 32 31 30 29 29
15 16 17 17 18 18 19 19 20 19 18 17 16 16 14 13 12 12 10 7 2 5 9 12 15 14 14 15 16 16 18 20 20 20 20 21 23 23 23 24 25 27 27 28 28 28 27 27 27 27 27 27 28 30 32 33 35 35 34 33 32 32 31
14 14 15 16 16 17 18 18 19 20 19 17 16 15 14 12 11 11 10 8 5 1 4 9 12 12 13 17 19 18 18 20 20 19 18 18 20 22 24 24 24 25 26 26 27 27 28 27 27 27 27 28 29 30 31 33 36 37 36 35 34 34 33
12 13 13 14 15 16 17 17 18 20 19 18 16 14 13 12 11 10 11 9 7 5 1 4 9 10 11 16 21 23 21 20 19 18 18 19 20 21 23 24 24 23 24 25 26 27 28 27 27 27 27 28 29 30 31 33 36 37 36 35 35 34 34
11 12 12 13 14 15 16 17 18 19 19 18 17 16 14 12 11 10 11 10 9 7 4 1 3 7 10 13 18 22 24 23 21 18 18 19 21 21 22 24 25 24 24 24 24 25 26 26 26 27 27 27 28 29 31 32 34 36 36 35 34 34 35
10 11 11 12 13 14 14 15 16 18 19 18 18 17 17 15 13 11 11 11 10 9 6 4 1 3 7 10 14 18 21 23 24 23 21 19 20 21 22 22 24 25 25 25 24 24 24 25 26 26 27 27 28 29 31 32 32 33 34 34 34 33 34
9 10 11 12 12 13 13 14 16 18 19 18 17 18 18 17 16 15 14 12 11 10 9 7 5 4 4 7 10 13 17 20 22 25 25 23 21 21 21 21 22 23 25 26 25 24 24 24 25 25 26 26 27 28 30 32 32 32 32 32 32 31 32
8 11 12 13 14 14 13 15 18 20 19 17 17 18 18 17 16 17 17 15 13 12 11 11 10 7 5 5 7 10 13 16 19 21 24 24 23 23 22 22 22 22 22 23 24 24 23 23 23 23 24 26 27 28 29 30 31 32 32 31 30 30 30
8 10 11 13 16 15 16 19 22 21 18 17 17 19 20 19 17 17 18 18 16 14 13 14 14 11 8 7 7 7 9 12 16 19 21 23 24 23 22 23 24 24 21 20 21 21 22 23 23 23 24 25 26 27 29 30 31 31 32 32 31 30 31
10 10 10 12 14 17 21 23 22 19 17 17 20 22 22 22 21 19 18 18 18 17 16 16 16 14 12 11 9 8 8 10 13 15 17 20 22 24 23 23 24 25 23 20 20 21 22 22 22 23 24 25 25 26 28 30 31 32 32 32 31 31 31
12 12 12 12 13 17 21 22 22 21 19 19 22 23 23 23 24 23 20 19 19 19 19 19 19 18 16 14 12 11 10 11 12 14 15 17 19 22 22 19 18 20 23 23 23 23 23 23 23 24 24 25 25 26 27 29 31 32 32 32 31 31 31
14 14 14 14 15 16 17 18 21 24 23 22 21 21 21 24 26 26 24 22 20 19 20 21 21 21 21 19 16 14 13 12 13 14 15 16 17 19 19 18 17 19 22 24 26 26 25 26 26 26 26 26 26 26 27 29 31 33 34 33 33 32 31
14 15 16 16 16 15 15 17 21 24 25 25 24 23 23 26 28 28 28 26 23 21 21 22 22 22 23 23 21 18 17 15 15 15 16 17 18 19 19 20 22 22 22 24 28 30 29 29 28 27 27 27 27 27 28 29 32 35 36 36 35 34 33
15 16 18 18 18 17 17 17 19 23 25 25 25 26 27 28 30 31 31 29 27 25 24 23 23 23 24 24 24 23 21 19 18 18 18 17 18 19 19 19 21 24 23 24 27 30 31 30 29 29 29 28 28 28 29 29 31 35 37 37 36 35 35
16 17 18 19 20 20 19 19 19 21 24 25 25 26 28 28 30 33 33 31 29 28 27 26 26 25 25 24 25 25 24 22 21 20 20 20 18 18 18 18 19 22 24 24 25 28 29 28 29 31 31 31 30 29 27 27 28 31 35 38 37 36 35
16 17 18 20 21 21 22 22 22 22 23 24 24 24 26 28 29 32 33 34 32 30 29 29 29 28 27 26 26 26 26 26 25 23 22 22 21 20 20 19 18 20 22 23 24 27 29 28 27 29 31 32 33 30 26 26 27 27 30 33 35 36 36
15 16 18 19 21 22 23 24 24 23 23 24 23 23 24 27 29 31 33 34 34 33 31 30 31 31 30 28 28 27 26 26 27 27 26 24 23 23 22 21 20 19 21 22 23 26 28 29 28 29 30 31 31 29 25 24 26 27 27 28 30 32 34
16 17 19 20 21 22 22 22 23 23 23 24 24 23 24 26 29 30 31 33 34 34 33 31 31 31 31 30 28 28 27 27 27 27 28 26 23 22 21 20 19 19 20 21 23 25 26 26 28 29 28 27 28 27 25 24 25 27 27 27 27 28 29
18 19 20 20 20 20 20 21 22 23 24 25 25 25 26 27 28 29 30 31 33 34 34 33 32 31 31 31 29 27 27 27 26 26 27 28 27 25 23 21 20 21 22 23 24 25 27 29 30 29 26 25 26 27 27 29 29 28 27 28 29 29 29
21 21 21 20 20 20 21 22 23 24 25 26 26 26 27 27 28 28 28 29 30 32 33 33 32 32 32 32 31 28 25 25 26 26 27 30 32 32 30 28 26 26 27 27 26 27 29 32 34 34 31 31 32 30 31 33 33 30 28 28 27 26 27
22 22 21 21 22 22 22 22 23 24 26 26 26 26 27 27 27 28 27 27 28 30 32 31 31 33 32 31 31 31 29 28 29 29 29 31 32 33 34 33 30 29 29 29 29 28 29 31 34 36 36 38 39 38 38 38 35 32 30 29 27 26 26
23 24 24 23 23 23 23 23 23 24 25 25 25 26 26 27 27 28 28 27 26 27 30 31 31 33 33 31 29 31 33 32 31 30 29 29 31 32 34 34 34 32 31 31 31 31 31 31 32 33 34 38 42 44 43 42 39 36 34 32 32 32 31
Wind_Direction
20 112 183 195 207 211 213 209 204 203 206 206 205 203 202 203 202 203 216 225 221 217 216 216 217 219 220 221 224 226 226 226 228 228 228 228 227 226 224 220 215 212 211 215 218 218 218 216 216 222 224 221 222 220 215 211 205 202 208 205 207 215 204
18 16 34 195 209 213 217 213 204 204 206 206 206 206 203 203 203 208 220 228 225 222 221 219 219 220 221 223 225 228 228 227 228 227 228 229 227 226 226 222 218 216 213 211 215 220 220 218 217 220 224 224 225 225 220 220 218 209 212 213 212 224 222
20 12 7 355 312 234 223 216 209 208 207 206 206 207 206 205 206 214 226 231 228 225 225 224 223 222 222 224 226 229 230 229 228 227 226 228 227 225 227 225 221 219 218 216 217 221 222 223 221 218 222 225 225 227 223 222 223 218 216 218 215 221 226
24 18 11 1 346 311 257 222 210 211 213 211 208 209 212 210 210 220 230 234 233 231 229 227 226 226 226 226 226 228 230 230 230 229 227 227 228 226 226 227 223 219 220 220 220 221 221 224 224 219 219 224 224 226 224 222 224 222 220 222 221 220 223
22 22 21 20 14 353 297 239 219 215 216 214 209 211 214 212 214 225 229 230 231 230 231 231 229 229 229 228 228 229 230 230 231 232 230 228 229 228 227 227 226 223 221 220 222 222 221 221 223 223 220 222 226 226 224 222 223 224 224 225 226 225 227
20 21 23 27 30 30 25 288 227 220 218 218 214 213 213 210 214 220 221 224 228 227 231 236 234 234 235 232 232 232 231 231 231 233 232 230 231 231 229 228 227 226 224 222 222 223 223 221 221 224 223 222 224 226 227 227 225 226 226 227 229 227 226
23 22 23 27 30 34 38 42 58 158 193 206 215 215 213 210 212 213 213 221 225 221 228 238 235 231 234 236 236 235 235 234 232 233 233 233 234 233 232 230 228 228 227 226 223 222 222 222 221 223 222 220 221 222 227 229 228 228 229 229 231 230 226
29 27 26 29 32 35 40 45 58 100 164 183 193 204 209 211 212 212 213 216 216 213 218 226 226 224 225 232 238 238 238 238 236 234 233 233 235 235 232 231 230 229 229 229 227 222 221 221 223 225 224 221 222 222 225 229 228 229 231 231 231 232 231
34 34 33 36 37 39 45 55 67 84 132 166 159 163 191 209 214 213 212 212 213 215 217 216 218 226 229 232 237 237 238 240 239 237 235 233 234 233 231 231 231 231 229 230 230 225 222 221 222 226 226 223 225 226 227 229 228 229 233 234 233 233 232
35 35 38 43 45 47 52 65 79 85 102 130 135 132 151 188 212 212 208 211 218 222 223 219 216 224 233 238 240 235 234 237 238 237 236 234 231 230 228 227 230 233 231 229 230 228 225 223 222 226 227 225 227 229 230 230 230 230 233 236 236 234 232
39 37 39 44 50 55 59 65 73 77 83 95 113 128 134 143 188 219 214 214 223 228 230 231 223 218 226 235 237 233 231 234 235 234 235 234 229 228 228 224 224 232 235 231 229 230 230 226 223 225 227 226 226 230 232 232 233 234 234 237 238 236 233
45 41 39 41 46 53 59 62 65 69 73 78 92 122 140 134 124 223 234 222 222 225 231 237 230 220 222 225 227 228 228 229 231 230 232 235 232 227 227 226 222 227 235 235 231 231 234 232 228 227 227 227 226 230 233 234 235 237 236 236 238 237 235
49 46 42 41 43 48 55 58 61 64 67 70 76 95 133 150 137 105 72 232 225 223 230 239 235 227 225 224 224 226 226 227 229 229 230 234 235 232 228 227 225 224 230 236 234 232 234 236 234 231 229 228 227 228 232 234 235 238 238 237 236 236 236
50 46 43 41 40 43 47 51 55 58 62 66 69 76 91 130 160 144 115 98 237 227 225 231 235 232 230 228 227 227 228 226 226 230 232 234 238 239 234 229 228 226 227 233 237 235 233 236 238 237 234 232 231 230 231 233 234 236 237 236 235 235 237
46 43 41 38 36 37 38 41 47 51 55 60 65 69 74 83 115 160 162 157 156 222 224 227 232 235 235 235 233 233 234 230 227 231 238 242 245 247 244 238 235 233 232 236 241 240 236 235 237 239 239 237 235 233 233 234 235 234 234 234 234 234 237
42 40 38 36 33 32 32 34 40 45 46 51 58 62 65 69 75 84 135 194 203 208 221 230 234 238 241 240 239 240 238 234 236 242 245 248 251 253 252 249 245 244 244 245 247 246 243 240 237 237 239 240 238 237 236 236 236 235 234 233 233 234 237
38 36 34 34 31 27 27 28 32 38 39 39 44 50 56 62 65 66 69 105 209 212 218 227 233 239 245 244 241 244 242 237 240 246 247 250 254 255 255 255 253 251 252 252 251 250 247 245 241 238 238 239 241 240 239 238 238 237 236 235 235 235 238
33 31 29 28 27 24 22 22 23 26 28 30 33 34 40 51 54 55 60 62 78 218 222 224 226 233 241 239 234 235 240 241 241 242 242 246 252 254 256 258 258 257 256 255 253 253 251 248 245 241 238 239 240 241 241 241 240 239 238 238 237 237 238
29 26 25 23 22 19 18 16 16 17 18 20 22 22 24 31 33 35 40 46 49 59 228 225 224 229 238 240 238 236 236 239 241 241 237 238 244 250 255 257 257 257 257 257 255 255 254 251 247 244 240 238 239 240 241 242 241 241 240 239 240 239 239
24 20 19 18 15 12 11 10 9 10 11 12 12 12 14 18 17 13 16 23 34 41 32 227 223 225 230 235 239 241 239 238 242 244 240 239 241 244 249 252 253 254 256 257 256 257 256 252 249 248 243 239 238 239 241 242 243 242 241 240 240 241 241
15 14 11 9 7 4 4 4 2 1 3 5 5 3 1 4 4 360 358 3 12 21 21 347 228 226 227 229 234 240 243 243 246 248 246 244 242 241 242 245 248 249 252 251 249 251 256 256 254 252 248 243 240 240 240 241 241 242 242 240 240 240 241
5 3 1 359 357 355 355 356 354 353 355 357 357 355 352 349 347 347 348 348 352 359 4 9 346 250 241 236 235 241 246 247 247 247 247 246 244 243 244 244 244 245 249 249 244 242 247 252 255 255 253 249 247 245 243 241 240 240 241 240 239 239 240
356 350 350 349 347 346 345 345 344 344 347 349 349 348 346 341 337 336 336 338 339 340 344 349 346 328 285 258 247 244 246 248 249 249 249 249 247 247 245 244 242 244 249 251 247 240 239 243 249 253 254 254 253 250 247 244 242 241 240 239 239 239 239
348 342 341 337 337 339 336 332 332 335 340 342 339 337 337 335 333 330 330 331 330 328 330 330 328 327 318 292 272 258 251 251 251 251 252 252 251 252 252 248 245 244 245 248 249 245 240 239 242 246 250 253 254 253 250 248 247 246 243 240 240 239 239
337 335 333 329 330 329 323 323 327 330 335 333 326 326 329 329 328 326 325 325 323 323 323 318 312 311 308 303 297 282 269 262 256 254 255 255 254 256 255 251 248 245 241 244 250 249 246 243 241 242 244 246 250 253 253 251 250 249 245 242 240 239 239
327 325 325 325 322 315 312 317 322 323 324 321 317 319 322 322 322 320 320 319 319 321 320 311 303 300 298 299 300 296 288 279 270 263 260 259 259 258 255 254 255 254 251 251 251 251 250 250 248 246 245 245 245 248 252 252 252 250 247 243 240 239 239
317 317 318 318 315 312 311 312 312 310 312 313 314 315 316 314 315 315 314 313 314 315 313 306 300 297 294 292 293 294 292 286 281 276 269 264 263 264 265 266 261 254 250 250 251 251 250 249 249 249 249 248 246 246 247 250 252 251 249 245 240 238 239
311 311 314 313 313 314 313 308 304 302 303 304 307 309 308 307 307 307 307 308 308 308 305 301 299 297 293 290 289 290 289 284 279 279 278 275 270 269 271 269 258 248 244 242 242 244 246 245 245 247 248 248 249 248 247 249 252 253 252 248 243 239 239
309 309 311 311 312 312 309 304 300 296 294 296 298 298 299 300 301 301 301 302 302 302 300 298 297 294 291 290 289 288 287 285 282 280 281 281 278 276 274 270 264 260 255 246 238 236 240 243 244 245 247 248 248 248 249 250 252 254 254 250 247 243 241
304 306 308 308 308 308 306 303 300 294 290 290 292 292 293 294 295 295 295 297 298 299 299 297 295 293 291 289 288 286 284 284 285 284 284 284 283 282 279 275 272 269 265 256 244 236 237 242 243 243 247 251 251 249 249 249 252 255 255 252 249 247 244
298 300 303 304 304 305 304 301 299 296 292 288 288 289 288 288 290 290 290 291 293 295 296 297 295 293 291 288 287 285 283 281 281 283 286 287 285 282 280 278 277 274 269 261 250 240 237 239 242 243 245 250 252 250 248 247 249 253 256 255 252 249 247
291 294 297 300 301 301 300 299 296 294 291 288 287 287 286 285 285 285 285 287 288 289 291 294 294 293 292 289 287 286 284 281 279 279 282 285 284 284 284 282 281 280 276 266 254 244 238 238 242 246 246 248 251 251 249 247 247 250 254 257 256 252 249
287 290 292 295 297 297 297 297 295 292 289 288 288 288 286 283 281 280 280 282 284 286 287 288 289 291 292 291 289 288 286 284 282 280 281 283 285 286 286 285 282 282 281 272 258 247 241 240 244 247 248 250 253 254 252 250 249 249 251 255 258 257 253
288 290 292 293 294 294 293 291 289 288 286 286 288 288 287 284 281 279 278 279 281 283 284 283 284 286 288 289 289 288 286 284 283 282 283 284 284 283 282 279 275 273 275 273 264 252 245 246 249 251 251 254 256 256 256 254 249 247 249 249 250 254 258
293 293 294 293 292 291 288 285 284 284 283 284 285 286 286 285 283 281 279 278 280 282 282 282 281 281 283 285 285 284 284 283 282 282 282 281 280 278 276 273 270 267 269 271 269 262 254 249 249 249 251 254 255 255 256 255 251 248 251 252 249 249 256
295 294 293 292 291 288 285 283 282 283 282 283 284 284 285 285 284 282 280 278 278 280 281 281 280 279 279 280 281 280 279 278 278 277 277 277 279 279 278 275 272 271 271 271 271 271 266 258 250 244 241 243 244 242 242 246 248 247 246 250 254 256 259
295 295 294 292 290 286 283 282 280 281 281 281 282 282 283 283 282 281 280 278 276 277 278 277 276 276 275 276 277 277 275 275 276 277 276 276 278 280 280 278 274 271 270 271 273 275 276 271 261 252 245 243 243 242 240 241 245 247 246 246 251 257 261
295 294 293 292 289 285 283 282 280 280 280 281 281 280 280 279 277 276 276 275 273 272 272 272 272 273 274 274 273 272 274 276 277 277 275 274 276 279 281 281 279 275 273 273 273 273 275 275 269 261 253 249 248 249 249 248 247 249 249 248 250 254 258
Height
1527 1526 1528 1531 1533 1535 1536 1536 1538 1541 1544 1547 1549 1551 1553 1555 1558 1560 1561 1563 1566 1568 1570 1572 1574 1576 1578 1580 1582 1584 1585 1587 1589 1591 1592 1594 1596 1597 1599 1600 1601 1603 1604 1606 1607 1607 1608 1609 1610 1610 1611 1611 1612 1612 1612 1613 1613 1613 1614 1614 1615 1615 1616
1528 1528 1528 1530 1532 1533 1534 1535 1537 1539 1541 1544 1546 1549 1551 1553 1555 1556 1558 1561 1563 1566 1568 1570 1572 1574 1577 1579 1581 1582 1584 1586 1587 1589 1591 1592 1594 1596 1597 1599 1600 1601 1602 1604 1606 1606 1607 1608 1608 1609 1610 1611 1611 1611 1612 1612 1612 1613 1613 1614 1614 1615 1615
1529 1529 1528 1529 1529 1530 1532 1533 1535 1537 1539 1542 1544 1547 1550 1552 1553 1554 1556 1558 1561 1564 1566 1568 1571 1573 1575 1577 1579 1581 1582 1584 1585 1587 1589 1590 1592 1594 1596 1597 1598 1600 1601 1602 1604 1605 1606 1607 1607 1608 1609 1609 1610 1611 1611 1612 1612 1612 1613 1613 1614 1614 1614
1531 1530 1529 1529 1528 1529 1530 1531 1533 1535 1538 1541 1543 1545 1547 1549 1552 1553 1555 1557 1559 1561 1564 1566 1569 1571 1573 1575 1577 1579 1580 1582 1584 1585 1587 1589 1591 1593 1594 1595 1597 1598 1600 1601 1602 1603 1605 1605 1606 1607 1608 1608 1609 1610 1610 1611 1611 1611 1612 1612 1613 1613 1614
1533 1532 1531 1530 1529 1530 1530 1531 1532 1534 1536 1539 1541 1543 1544 1546 1548 1550 1552 1555 1558 1561 1562 1565 1567 1569 1571 1573 1575 1577 1579 1581 1582 1584 1586 1587 1589 1591 1592 1593 1595 1596 1598 1599 1600 1601 1602 1604 1605 1605 1606 1607 1608 1609 1609 1610 1610 1610 1611 1611 1612 1612 1613
1536 1534 1533 1532 1531 1531 1530 1531 1532 1533 1536 1538 1540 1542 1543 1545 1547 1548 1551 1553 1556 1559 1561 1563 1567 1569 1570 1572 1573 1575 1577 1579 1581 1582 1584 1586 1587 1589 1590 1592 1593 1595 1596 1597 1598 1599 1600 1602 1603 1604 1605 1606 1607 1607 1608 1608 1609 1609 1610 1610 1611 1611 1612
1538 1536 1535 1533 1532 1531 1530 1529 1530 1530 1533 1536 1538 1540 1542 1544 1546 1548 1550 1551 1554 1557 1558 1561 1564 1567 1569 1570 1572 1573 1575 1577 1579 1581 1582 1584 1585 1587 1588 1590 1591 1593 1594 1595 1596 1598 1599 1600 1601 1602 1603 1604 1605 1606 1607 1607 1607 1608 1608 1609 1609 1610 1611
1540 1538 1536 1534 1533 1531 1529 1528 1528 1528 1530 1533 1536 1538 1541 1543 1545 1547 1549 1550 1552 1554 1556 1558 1560 1563 1566 1567 1569 1571 1573 1575 1577 1579 1580 1582 1583 1585 1586 1588 1589 1591 1592 1593 1594 1595 1597 1598 1599 1600 1601 1602 1603 1604 1605 1605 1606 1607 1607 1608 1608 1609 1609
1541 1540 1538 1535 1533 1531 1530 1529 1528 1529 1530 1533 1536 1537 1539 1542 1544 1546 1548 1548 1550 1552 1554 1556 1558 1560 1561 1563 1566 1568 1570 1572 1574 1576 1578 1580 1581 1583 1584 1586 1587 1588 1590 1591 1593 1594 1595 1596 1597 1599 1599 1600 1601 1602 1603 1603 1604 1605 1605 1606 1607 1607 1608
1542 1541 1539 1536 1534 1532 1531 1530 1529 1530 1531 1533 1535 1537 1539 1541 1543 1544 1546 1547 1549 1551 1553 1556 1557 1559 1559 1561 1563 1565 1567 1569 1571 1574 1575 1577 1580 1581 1583 1584 1585 1586 1587 1589 1591 1592 1593 1594 1595 1596 1597 1598 1599 1600 1601 1602 1602 1603 1604 1604 1605 1605 1606
1544 1543 1540 1537 1535 1533 1532 1532 1531 1532 1533 1533 1535 1536 1537 1540 1542 1544 1545 1547 1549 1551 1552 1554 1557 1558 1559 1560 1561 1563 1565 1567 1569 1571 1573 1575 1577 1579 1581 1582 1584 1584 1585 1587 1588 1589 1591 1591 1592 1594 1594 1595 1597 1597 1599 1599 1600 1601 1602 1603 1603 1604 1605
1545 1543 1541 1539 1537 1535 1534 1534 1534 1534 1535 1535 1536 1536 1537 1539 1542 1544 1545 1546 1548 1550 1552 1553 1555 1557 1558 1559 1561 1562 1564 1565 1567 1569 1570 1572 1575 1577 1579 1580 1582 1582 1583 1584 1586 1587 1588 1589 1590 1591 1592 1593 1594 1595 1596 1597 1598 1599 1600 1601 1602 1602 1603
1546 1544 1543 1541 1539 1538 1537 1537 1537 1537 1537 1538 1538 1538 1538 1538 1540 1542 1544 1545 1547 1548 1550 1551 1553 1555 1556 1558 1560 1561 1562 1563 1565 1566 1568 1570 1572 1574 1576 1577 1579 1580 1581 1581 1583 1584 1585 1586 1587 1588 1589 1591 1592 1593 1594 1594 1596 1597 1597 1599 1600 1600 1601
1546 1545 1544 1543 1541 1540 1539 1539 1539 1539 1539 1539 1540 1539 1539 1539 1539 1540 1542 1545 1546 1546 1547 1549 1551 1552 1554 1556 1557 1558 1560 1561 1563 1564 1566 1567 1569 1570 1573 1574 1576 1577 1578 1579 1580 1581 1582 1583 1585 1586 1587 1588 1589 1590 1591 1592 1593 1594 1594 1596 1597 1598 1599
1547 1546 1546 1545 1544 1543 1543 1543 1542 1542 1542 1542 1541 1541 1541 1540 1540 1540 1541 1542 1544 1544 1545 1546 1548 1549 1551 1553 1554 1555 1557 1559 1560 1561 1562 1564 1565 1567 1569 1571 1573 1574 1575 1576 1577 1578 1580 1581 1582 1583 1584 1585 1586 1587 1588 1588 1589 1590 1591 1593 1594 1595 1596
1548 1548 1548 1547 1547 1547 1546 1545 1545 1545 1544 1544 1543 1542 1542 1542 1541 1541 1541 1541 1541 1542 1543 1544 1545 1547 1549 1550 1551 1553 1555 1556 1557 1558 1559 1560 1562 1563 1565 1567 1569 1570 1571 1572 1573 1575 1576 1577 1579 1580 1580 1581 1582 1583 1584 1585 1586 1586 1588 1589 1591 1592 1594
1550 1550 1550 1549 1549 1549 1548 1547 1547 1546 1546 1545 1545 1544 1543 1542 1542 1542 1542 1541 1541 1541 1541 1542 1543 1545 1547 1548 1549 1551 1552 1553 1554 1554 1556 1557 1558 1560 1561 1563 1565 1566 1567 1568 1570 1571 1572 1573 1575 1576 1577 1578 1579 1580 1580 1581 1582 1583 1584 1586 1588 1589 1591
1551 1551 1551 1551 1551 1550 1550 1549 1548 1547 1547 1546 1546 1545 1544 1543 1542 1542 1542 1542 1541 1541 1541 1541 1542 1544 1545 1545 1547 1549 1550 1551 1551 1552 1553 1554 1555 1556 1557 1559 1561 1562 1563 1564 1565 1567 1568 1569 1570 1572 1573 1574 1575 1576 1576 1577 1578 1579 1580 1582 1584 1585 1587
1552 1552 1552 1552 1552 1552 1551 1551 1550 1548 1548 1547 1546 1546 1545 1544 1543 1543 1542 1542 1541 1541 1541 1541 1541 1542 1543 1543 1544 1547 1548 1549 1549 1549 1550 1551 1551 1552 1554 1555 1556 1558 1559 1560 1561 1562 1563 1564 1566 1567 1569 1570 1571 1571 1572 1573 1574 1575 1576 1578 1580 1581 1583
1553 1553 1553 1553 1553 1553 1552 1551 1550 1549 1548 1547 1547 1546 1545 1545 1544 1544 1543 1542 1542 1541 1541 1540 1540 1541 1541 1542 1543 1544 1545 1546 1546 1546 1547 1548 1548 1549 1550 1551 1552 1553 1555 1557 1557 1558 1559 1560 1562 1563 1564 1565 1566 1567 1568 1568 1569 1570 1572 1574 1575 1577 1578
1554 1554 1554 1554 1553 1553 1552 1551 1551 1550 1549 1548 1547 1546 1545 1545 1545 1545 1544 1543 1542 1541 1541 1540 1540 1540 1540 1541 1542 1542 1542 1543 1544 1543 1543 1544 1545 1545 1546 1547 1548 1549 1551 1553 1554 1554 1555 1556 1557 1558 1559 1560 1562 1563 1563 1564 1565 1566 1567 1569 1571 1573 1574
1553 1554 1554 1554 1553 1553 1553 1552 1551 1550 1549 1548 1547 1546 1545 1545 1545 1545 1544 1543 1542 1541 1541 1540 1539 1539 1539 1539 1540 1539 1540 1540 1541 1541 1540 1541 1541 1542 1542 1543 1544 1545 1546 1548 1550 1552 1552 1552 1553 1554 1555 1556 1557 1558 1559 1559 1560 1561 1562 1564 1566 1568 1569
1554 1553 1553 1553 1553 1553 1552 1552 1551 1550 1549 1549 1548 1547 1545 1545 1544 1543 1543 1543 1542 1541 1540 1539 1539 1538 1538 1538 1538 1538 1538 1537 1538 1538 1538 1538 1538 1539 1539 1540 1541 1542 1543 1544 1546 1548 1549 1550 1550 1551 1552 1552 1553 1554 1554 1555 1556 1557 1558 1560 1561 1563 1564
1554 1553 1553 1552 1552 1552 1552 1551 1550 1549 1549 1549 1548 1547 1546 1545 1544 1543 1542 1542 1541 1541 1540 1539 1538 1537 1536 1536 1536 1536 1536 1536 1536 1536 1536 1536 1536 1536 1537 1537 1538 1539 1541 1542 1543 1545 1546 1548 1548 1548 1549 1549 1549 1550 1550 1551 1552 1552 1554 1555 1557 1558 1559
1554 1554 1553 1552 1551 1551 1550 1549 1548 1548 1548 1548 1547 1546 1545 1545 1544 1543 1542 1541 1540 1540 1539 1538 1537 1536 1536 1535 1535 1534 1534 1535 1534 1534 1534 1533 1533 1534 1535 1535 1535 1536 1538 1540 1541 1542 1543 1545 1546 1546 1546 1546 1546 1546 1546 1547 1548 1548 1549 1550 1552 1553 1554
1553 1553 1553 1553 1551 1550 1548 1547 1547 1547 1547 1547 1546 1544 1544 1543 1543 1542 1541 1540 1539 1539 1538 1537 1536 1536 1535 1534 1533 1533 1533 1533 1533 1532 1531 1531 1530 1531 1531 1532 1534 1536 1537 1539 1540 1540 1541 1542 1543 1544 1544 1544 1544 1544 1543 1543 1543 1544 1544 1546 1547 1549 1550
1550 1550 1551 1551 1550 1549 1548 1547 1546 1546 1546 1545 1544 1543 1542 1542 1541 1540 1540 1540 1539 1538 1537 1536 1535 1534 1534 1533 1533 1532 1531 1530 1530 1530 1529 1529 1528 1528 1528 1530 1532 1533 1534 1536 1536 1537 1538 1539 1540 1541 1541 1541 1541 1541 1540 1540 1539 1540 1540 1541 1543 1544 1545
1548 1548 1548 1548 1548 1548 1547 1546 1545 1544 1543 1543 1543 1542 1541 1540 1539 1538 1538 1537 1538 1537 1535 1534 1533 1532 1532 1531 1531 1531 1530 1529 1528 1527 1527 1527 1527 1526 1526 1527 1527 1527 1528 1530 1531 1532 1533 1534 1534 1535 1536 1537 1537 1537 1537 1537 1536 1536 1536 1536 1538 1539 1540
1546 1546 1545 1545 1545 1546 1545 1544 1543 1542 1541 1541 1541 1540 1539 1538 1536 1536 1535 1535 1535 1535 1534 1533 1532 1531 1530 1529 1529 1528 1528 1527 1526 1526 1525 1525 1525 1524 1524 1524 1523 1523 1524 1525 1525 1526 1528 1529 1529 1530 1530 1531 1532 1532 1533 1533 1532 1532 1532 1532 1533 1534 1535
1545 1544 1543 1543 1543 1542 1542 1541 1541 1539 1539 1538 1538 1537 1536 1535 1534 1532 1532 1532 1532 1532 1531 1530 1530 1529 1528 1527 1526 1526 1526 1525 1525 1524 1523 1523 1523 1522 1521 1521 1520 1520 1521 1521 1521 1522 1523 1524 1525 1526 1526 1526 1526 1526 1527 1528 1528 1527 1527 1527 1528 1529 1531
1543 1542 1541 1540 1540 1539 1538 1538 1537 1537 1536 1535 1535 1534 1533 1532 1531 1529 1529 1529 1529 1528 1528 1527 1527 1526 1525 1525 1524 1523 1523 1523 1522 1522 1521 1520 1519 1519 1518 1518 1518 1517 1517 1518 1518 1518 1519 1519 1520 1520 1521 1520 1520 1520 1521 1523 1524 1524 1523 1523 1524 1525 1526
1541 1540 1539 1538 1537 1536 1535 1534 1533 1533 1532 1532 1532 1532 1530 1529 1528 1527 1526 1525 1525 1525 1525 1524 1523 1522 1522 1522 1522 1521 1520 1520 1519 1519 1518 1518 1517 1516 1515 1515 1514 1514 1514 1514 1514 1514 1514 1515 1516 1515 1515 1515 1514 1515 1517 1518 1520 1521 1520 1519 1519 1520 1521
1539 1539 1537 1536 1535 1533 1532 1531 1530 1529 1528 1528 1528 1528 1527 1526 1525 1524 1523 1522 1521 1521 1521 1520 1519 1518 1518 1518 1518 1518 1518 1517 1516 1516 1515 1515 1514 1513 1512 1512 1511 1511 1510 1511 1511 1511 1511 1511 1511 1511 1510 1511 1511 1512 1513 1514 1515 1517 1517 1517 1516 1515 1517
1537 1536 1535 1534 1532 1531 1529 1528 1527 1526 1525 1524 1524 1524 1523 1522 1521 1521 1520 1519 1518 1518 1517 1517 1516 1515 1514 1514 1514 1514 1514 1514 1514 1513 1512 1511 1511 1511 1510 1509 1509 1508 1507 1507 1508 1508 1508 1508 1507 1507 1508 1508 1509 1511 1512 1511 1511 1511 1512 1514 1514 1513 1513
1534 1534 1532 1531 1530 1528 1527 1525 1524 1523 1522 1521 1520 1519 1519 1518 1517 1517 1516 1516 1515 1514 1513 1513 1512 1512 1511 1511 1510 1510 1510 1510 1510 1510 1509 1508 1507 1507 1506 1506 1505 1504 1503 1503 1503 1504 1504 1503 1503 1504 1506 1506 1506 1507 1509 1509 1508 1507 1508 1510 1511 1510 1510
1530 1530 1529 1528 1527 1525 1524 1523 1521 1519 1518 1517 1516 1515 1514 1513 1513 1513 1513 1512 1512 1510 1509 1509 1508 1508 1508 1507 1506 1506 1506 1506 1506 1507 1506 1505 1503 1502 1502 1501 1501 1500 1498 1498 1498 1499 1499 1499 1498 1500 1502 1502 1501 1502 1504 1504 1503 1503 1504 1505 1506 1507 1507
1526 1525 1525 1524 1523 1522 1521 1520 1518 1516 1515 1513 1512 1511 1510 1510 1509 1508 1508 1508 1508 1507 1506 1505 1504 1504 1503 1503 1503 1502 1502 1501 1501 1502 1502 1501 1500 1499 1497 1496 1496 1495 1494 1494 1494 1494 1494 1494 1494 1495 1496 1497 1496 1497 1497 1497 1497 1497 1498 1500 1501 1502 1503
1522 1521 1520 1519 1519 1518 1517 1516 1515 1513 1511 1510 1509 1508 1507 1506 1505 1504 1504 1504 1504 1504 1502 1501 1500 1499 1499 1499 1499 1498 1498 1497 1496 1497 1497 1497 1497 1495 1494 1493 1491 1490 1490 1490 1489 1489 1488 1488 1488 1489 1490 1490 1490 1490 1490 1490 1492 1493 1493 1494 1495 1496 1498